,,,PA_Meas_PMT16A,,PR_Meas_QMR101_102,,RH_Meas_QMH101,,SR_Meas_QMS101,,TA_Meas_QMH101,,GenWind,,GenWind,
date,time,status,PA,status,PR,status,RH,status,SR,status,TA,status,DirAvg,status,SpdAvg,
2010-09-26, 00:00:04,VALID,1000.8,VALID,0,VALID,85.8256,VALID,0,VALID,24.072,VALID,359,VALID,0.683203,
2010-09-26, 00:01:04,VALID,1000.82,VALID,0,VALID,86.4512,VALID,0,VALID,23.9939,VALID,2,VALID,0.955469,
2010-09-26, 00:02:04,VALID,1000.78,VALID,0,VALID,86.4589,VALID,0,VALID,23.9159,VALID,46,VALID,0.892969,
2010-09-26, 00:03:04,VALID,1000.81,VALID,0,VALID,87.1379,VALID,0,VALID,23.8573,VALID,29,VALID,0.833984,
2010-09-26, 00:04:04,VALID,1000.82,VALID,0,VALID,87.6033,VALID,0,VALID,23.7597,VALID,29,VALID,1.06211,
2010-09-26, 00:05:04,VALID,1000.79,VALID,0,VALID,88.5189,VALID,0,VALID,23.6799,VALID,33,VALID,1.08945,
2010-09-26, 00:06:04,VALID,1000.8,VALID,0,VALID,88.6943,VALID,0,VALID,23.6817,VALID,33,VALID,0.956641,
2010-09-26, 00:07:04,VALID,1000.76,VALID,0,VALID,88.6104,VALID,0,VALID,23.6622,VALID,33,VALID,1.07344,
2010-09-26, 00:08:04,VALID,1000.75,VALID,0,VALID,88.4731,VALID,0,VALID,23.5823,VALID,21,VALID,1.27266,
2010-09-26, 00:09:04,VALID,1000.75,VALID,0,VALID,88.5112,VALID,0.112286,VALID,23.5238,VALID,19,VALID,1.67695,
2010-09-26, 00:10:04,VALID,1000.74,VALID,0,VALID,88.7783,VALID,0,VALID,23.4848,VALID,22,VALID,1.53672,
2010-09-26, 00:11:04,VALID,1000.73,VALID,0,VALID,88.9843,VALID,0.112286,VALID,23.4653,VALID,23,VALID,1.33008,
2010-09-26, 00:12:04,VALID,1000.68,VALID,0,VALID,89.0529,VALID,0,VALID,23.4458,VALID,25,VALID,1.63281,
2010-09-26, 00:13:04,VALID,1000.67,VALID,0,VALID,89.0071,VALID,0.112286,VALID,23.4263,VALID,29,VALID,0.921875,
2010-09-26, 00:14:04,VALID,1000.63,VALID,0,VALID,89.03,VALID,0.112286,VALID,23.4067,VALID,36,VALID,0.964063,
2010-09-26, 00:15:04,VALID,1000.6,VALID,0,VALID,89.1445,VALID,0.112286,VALID,23.4067,VALID,29,VALID,0.804688,
2010-09-26, 00:16:04,VALID,1000.6,VALID,0,VALID,89.2589,VALID,0,VALID,23.4263,VALID,29,VALID,0.853516,
2010-09-26, 00:17:04,VALID,1000.63,VALID,0,VALID,89.2742,VALID,0,VALID,23.4263,VALID,28,VALID,1.22187,
2010-09-26, 00:18:04,VALID,1000.64,VALID,0,VALID,89.2818,VALID,0,VALID,23.4458,VALID,24,VALID,1.34609,
2010-09-26, 00:19:04,VALID,1000.64,VALID,0,VALID,89.2055,VALID,0.112286,VALID,23.4263,VALID,20,VALID,1.25078,
2010-09-26, 00:20:04,VALID,1000.65,VALID,0,VALID,89.175,VALID,0,VALID,23.4263,VALID,21,VALID,1.21289,
2010-09-26, 00:21:04,VALID,1000.67,VALID,0,VALID,89.1521,VALID,0,VALID,23.3872,VALID,22,VALID,1.05273,
2010-09-26, 00:22:04,VALID,1000.66,VALID,0,VALID,89.2132,VALID,0,VALID,23.3695,VALID,22,VALID,0.723047,
2010-09-26, 00:23:04,VALID,1000.64,VALID,0,VALID,89.3276,VALID,0,VALID,23.3092,VALID,22,VALID,0.713281,
2010-09-26, 00:24:04,VALID,1000.62,VALID,0,VALID,89.32,VALID,0,VALID,23.2702,VALID,22,VALID,0.283203,
2010-09-26, 00:25:04,VALID,1000.6,VALID,0,VALID,89.4039,VALID,0,VALID,23.2719,VALID,22,VALID,0.382422,
2010-09-26, 00:26:04,VALID,1000.58,VALID,0,VALID,89.5717,VALID,0,VALID,23.2524,VALID,22,VALID,0.616797,
2010-09-26, 00:27:04,VALID,1000.58,VALID,0,VALID,89.7091,VALID,0,VALID,23.2329,VALID,22,VALID,0.454297,
2010-09-26, 00:28:04,VALID,1000.54,VALID,0,VALID,89.7472,VALID,0,VALID,23.2329,VALID,22,VALID,0.322656,
2010-09-26, 00:29:04,VALID,1000.52,VALID,0,VALID,89.7701,VALID,0,VALID,23.1921,VALID,22,VALID,0.343359,
2010-09-26, 00:30:04,VALID,1000.5,VALID,0,VALID,89.7701,VALID,0,VALID,23.2134,VALID,22,VALID,0.221484,
2010-09-26, 00:31:04,VALID,1000.48,VALID,0,VALID,89.8311,VALID,0,VALID,23.2134,VALID,22,VALID,0.26875,
2010-09-26, 00:32:04,VALID,1000.47,VALID,0,VALID,90.0524,VALID,0,VALID,23.2329,VALID,22,VALID,0.459766,
2010-09-26, 00:33:04,VALID,1000.47,VALID,0,VALID,90.1287,VALID,0,VALID,23.2524,VALID,22,VALID,0.507813,
2010-09-26, 00:34:04,VALID,1000.43,VALID,0,VALID,90.2508,VALID,0,VALID,23.2702,VALID,22,VALID,0.523047,
2010-09-26, 00:35:04,VALID,1000.42,VALID,0,VALID,90.2355,VALID,0,VALID,23.3695,VALID,22,VALID,0.486328,
2010-09-26, 00:36:04,VALID,1000.39,VALID,0,VALID,90.0066,VALID,0,VALID,23.428,VALID,22,VALID,0.449609,
2010-09-26, 00:37:04,VALID,1000.36,VALID,0,VALID,89.6328,VALID,0.112286,VALID,23.4848,VALID,22,VALID,0.316016,
2010-09-26, 00:38:04,VALID,1000.33,VALID,0,VALID,89.1292,VALID,0,VALID,23.5238,VALID,22,VALID,0.280859,
2010-09-26, 00:39:04,VALID,1000.3,VALID,0,VALID,88.7477,VALID,0,VALID,23.5433,VALID,22,VALID,0.250781,
2010-09-26, 00:40:04,VALID,1000.29,VALID,0,VALID,88.763,VALID,0.112286,VALID,23.5841,VALID,22,VALID,0.269141,
2010-09-26, 00:41:04,VALID,1000.28,VALID,0,VALID,88.702,VALID,0,VALID,23.561,VALID,22,VALID,0.388672,
2010-09-26, 00:42:04,VALID,1000.25,VALID,0,VALID,88.557,VALID,0.112286,VALID,23.6019,VALID,22,VALID,0.217187,
2010-09-26, 00:43:04,VALID,1000.26,VALID,0,VALID,88.4197,VALID,0,VALID,23.6214,VALID,22,VALID,0.155469,
2010-09-26, 00:44:04,VALID,1000.26,VALID,0,VALID,88.412,VALID,0.112286,VALID,23.6196,VALID,22,VALID,0.242969,
2010-09-26, 00:45:04,VALID,1000.23,VALID,0,VALID,88.4426,VALID,0.112286,VALID,23.6196,VALID,22,VALID,0.326172,
2010-09-26, 00:46:04,VALID,1000.23,VALID,0,VALID,88.206,VALID,0.112286,VALID,23.6409,VALID,22,VALID,0.395312,
2010-09-26, 00:47:04,VALID,1000.21,VALID,0,VALID,87.8856,VALID,0.112286,VALID,23.6214,VALID,22,VALID,0.3,
2010-09-26, 00:48:04,VALID,1000.23,VALID,0,VALID,87.8017,VALID,0.112286,VALID,23.5238,VALID,22,VALID,0.445703,
2010-09-26, 00:49:04,VALID,1000.23,VALID,0,VALID,88.29,VALID,0.112286,VALID,23.444,VALID,22,VALID,0.328516,
2010-09-26, 00:50:04,VALID,1000.24,VALID,0,VALID,88.7172,VALID,0,VALID,23.4263,VALID,22,VALID,0.213672,
2010-09-26, 00:51:04,VALID,1000.26,VALID,0,VALID,89.1903,VALID,0.112286,VALID,23.3872,VALID,95,VALID,0.678516,
2010-09-26, 00:52:04,VALID,1000.23,VALID,0,VALID,89.8617,VALID,0,VALID,23.4085,VALID,113,VALID,0.793359,
2010-09-26, 00:53:04,VALID,1000.23,VALID,0,VALID,90.1974,VALID,0,VALID,23.4475,VALID,113,VALID,0.681641,
2010-09-26, 00:54:04,VALID,1000.2,VALID,0,VALID,89.9609,VALID,0,VALID,23.4866,VALID,123,VALID,1.06836,
2010-09-26, 00:55:04,VALID,1000.22,VALID,0,VALID,89.7396,VALID,0,VALID,23.4866,VALID,125,VALID,1.07617,
2010-09-26, 00:56:04,VALID,1000.18,VALID,0,VALID,89.5107,VALID,0,VALID,23.5256,VALID,126,VALID,0.996875,
2010-09-26, 00:57:04,VALID,1000.22,VALID,0,VALID,89.2818,VALID,0,VALID,23.5646,VALID,126,VALID,0.950781,
2010-09-26, 00:58:04,VALID,1000.21,VALID,0,VALID,89.114,VALID,0,VALID,23.5646,VALID,126,VALID,0.925391,
2010-09-26, 00:59:04,VALID,1000.23,VALID,0,VALID,88.8469,VALID,0,VALID,23.5841,VALID,126,VALID,1.03672,
2010-09-26, 01:00:04,VALID,1000.2,VALID,0,VALID,88.8164,VALID,0,VALID,23.5628,VALID,126,VALID,0.83125,
2010-09-26, 01:01:04,VALID,1000.19,VALID,0,VALID,88.6867,VALID,0,VALID,23.5841,VALID,125,VALID,0.585156,
2010-09-26, 01:02:04,VALID,1000.16,VALID,0,VALID,88.6409,VALID,0,VALID,23.5628,VALID,125,VALID,0.559375,
2010-09-26, 01:03:04,VALID,1000.15,VALID,0,VALID,88.6562,VALID,0,VALID,23.5646,VALID,125,VALID,0.371484,
2010-09-26, 01:04:04,VALID,1000.12,VALID,0,VALID,88.6714,VALID,0,VALID,23.5238,VALID,125,VALID,0.399609,
2010-09-26, 01:05:04,VALID,1000.16,VALID,0,VALID,88.618,VALID,0,VALID,23.5043,VALID,122,VALID,0.507422,
2010-09-26, 01:06:04,VALID,1000.17,VALID,0,VALID,88.7096,VALID,0,VALID,23.5061,VALID,81,VALID,0.493359,
2010-09-26, 01:07:04,VALID,1000.15,VALID,0,VALID,88.9232,VALID,0,VALID,23.4263,VALID,81,VALID,0.614062,
2010-09-26, 01:08:04,VALID,1000.14,VALID,0,VALID,89.0606,VALID,0,VALID,23.4067,VALID,81,VALID,0.485547,
2010-09-26, 01:09:04,VALID,1000.13,VALID,0,VALID,89.03,VALID,0,VALID,23.3677,VALID,81,VALID,0.219531,
2010-09-26, 01:10:04,VALID,1000.11,VALID,0,VALID,88.9461,VALID,0,VALID,23.35,VALID,81,VALID,0.203125,
2010-09-26, 01:11:04,VALID,1000.15,VALID,0,VALID,89.2208,VALID,0,VALID,23.311,VALID,81,VALID,0.383203,
2010-09-26, 01:12:04,VALID,1000.16,VALID,0,VALID,89.4726,VALID,0,VALID,23.2719,VALID,81,VALID,0.219141,
2010-09-26, 01:13:04,VALID,1000.18,VALID,0,VALID,89.6328,VALID,0,VALID,23.2524,VALID,81,VALID,0.201172,
2010-09-26, 01:14:04,VALID,1000.18,VALID,0,VALID,89.7091,VALID,0,VALID,23.2524,VALID,81,VALID,0,
2010-09-26, 01:15:04,VALID,1000.18,VALID,0,VALID,89.648,VALID,0,VALID,23.2329,VALID,81,VALID,0.00234375,
2010-09-26, 01:16:04,VALID,1000.21,VALID,0,VALID,89.7549,VALID,0,VALID,23.2117,VALID,81,VALID,0.330078,
2010-09-26, 01:17:04,VALID,1000.25,VALID,0,VALID,89.7854,VALID,0,VALID,23.2329,VALID,136,VALID,0.863672,
2010-09-26, 01:18:04,VALID,1000.26,VALID,0,VALID,89.526,VALID,0,VALID,23.2702,VALID,136,VALID,1.11992,
2010-09-26, 01:19:04,VALID,1000.24,VALID,0,VALID,89.4726,VALID,0,VALID,23.3287,VALID,144,VALID,1.23359,
2010-09-26, 01:20:04,VALID,1000.21,VALID,0,VALID,89.3047,VALID,0,VALID,23.4085,VALID,155,VALID,1.17578,
2010-09-26, 01:21:04,VALID,1000.2,VALID,0,VALID,89.2513,VALID,0,VALID,23.4866,VALID,153,VALID,1.49336,
2010-09-26, 01:22:04,VALID,1000.18,VALID,0,VALID,88.7783,VALID,0,VALID,23.5256,VALID,154,VALID,1.20469,
2010-09-26, 01:23:04,VALID,1000.16,VALID,0,VALID,88.4349,VALID,0,VALID,23.5841,VALID,166,VALID,1.53711,
2010-09-26, 01:24:04,VALID,1000.15,VALID,0,VALID,88.2518,VALID,0,VALID,23.6214,VALID,163,VALID,1.33633,
2010-09-26, 01:25:04,VALID,1000.13,VALID,0,VALID,88.0077,VALID,0,VALID,23.6622,VALID,162,VALID,1.20156,
2010-09-26, 01:26:04,VALID,1000.09,VALID,0,VALID,87.6796,VALID,0,VALID,23.6799,VALID,158,VALID,0.874609,
2010-09-26, 01:27:04,VALID,1000.09,VALID,0,VALID,87.5041,VALID,0,VALID,23.7207,VALID,156,VALID,0.784375,
2010-09-26, 01:28:04,VALID,1000.11,VALID,0,VALID,87.2371,VALID,0,VALID,23.7207,VALID,156,VALID,0.750391,
2010-09-26, 01:29:04,VALID,1000.05,VALID,0,VALID,87.1837,VALID,0,VALID,23.6994,VALID,156,VALID,0.473828,
2010-09-26, 01:30:04,VALID,1000.11,VALID,0,VALID,87.1989,VALID,0,VALID,23.7012,VALID,156,VALID,0.475,
2010-09-26, 01:31:04,VALID,1000.05,VALID,0,VALID,87.1379,VALID,0,VALID,23.6817,VALID,156,VALID,0.429297,
2010-09-26, 01:32:04,VALID,1000.05,VALID,0,VALID,87.0311,VALID,0,VALID,23.6622,VALID,156,VALID,0.3875,
2010-09-26, 01:33:04,VALID,1000.06,VALID,0,VALID,86.9624,VALID,0,VALID,23.6427,VALID,54,VALID,0.777344,
2010-09-26, 01:34:04,VALID,1000.06,VALID,0,VALID,87.0769,VALID,0,VALID,23.5628,VALID,48,VALID,0.921094,
2010-09-26, 01:35:04,VALID,1000.07,VALID,0,VALID,87.3363,VALID,0,VALID,23.5628,VALID,44,VALID,0.541797,
2010-09-26, 01:36:04,VALID,1000.07,VALID,0,VALID,87.4126,VALID,0,VALID,23.5628,VALID,44,VALID,0.496094,
2010-09-26, 01:37:04,VALID,1000.05,VALID,0,VALID,87.5194,VALID,0,VALID,23.5841,VALID,44,VALID,0.146484,
2010-09-26, 01:38:04,VALID,1000.01,VALID,0,VALID,87.527,VALID,0,VALID,23.5841,VALID,44,VALID,0.298047,
2010-09-26, 01:39:04,VALID,999.972,VALID,0,VALID,87.6033,VALID,0,VALID,23.5628,VALID,44,VALID,0.345703,
2010-09-26, 01:40:04,VALID,999.972,VALID,0,VALID,87.5423,VALID,0,VALID,23.5841,VALID,24,VALID,0.780859,
2010-09-26, 01:41:04,VALID,999.95,VALID,0,VALID,87.5117,VALID,0,VALID,23.5841,VALID,12,VALID,0.851563,
2010-09-26, 01:42:04,VALID,999.929,VALID,0,VALID,87.6796,VALID,0,VALID,23.5646,VALID,6,VALID,0.968359,
2010-09-26, 01:43:04,VALID,999.936,VALID,0,VALID,87.5728,VALID,0,VALID,23.5628,VALID,6,VALID,0.978125,
2010-09-26, 01:44:04,VALID,999.966,VALID,0,VALID,87.8169,VALID,0,VALID,23.5433,VALID,6,VALID,1.03242,
2010-09-26, 01:45:04,VALID,999.975,VALID,0,VALID,87.9848,VALID,0,VALID,23.5256,VALID,6,VALID,0.919531,
2010-09-26, 01:46:04,VALID,999.93,VALID,0,VALID,88.4883,VALID,0,VALID,23.5043,VALID,6,VALID,0.868359,
2010-09-26, 01:47:04,VALID,999.926,VALID,0,VALID,88.618,VALID,0,VALID,23.5646,VALID,6,VALID,0.730469,
2010-09-26, 01:48:04,VALID,999.934,VALID,0,VALID,88.3434,VALID,0,VALID,23.5841,VALID,6,VALID,0.540234,
2010-09-26, 01:49:04,VALID,999.947,VALID,0,VALID,88.2747,VALID,0,VALID,23.5841,VALID,6,VALID,0.524609,
2010-09-26, 01:50:04,VALID,999.966,VALID,0,VALID,88.5341,VALID,0,VALID,23.5841,VALID,6,VALID,0.498828,
2010-09-26, 01:51:04,VALID,999.907,VALID,0,VALID,88.5341,VALID,0,VALID,23.5823,VALID,6,VALID,0.36875,
2010-09-26, 01:52:04,VALID,999.93,VALID,0,VALID,88.2366,VALID,0,VALID,23.5646,VALID,6,VALID,0.555469,
2010-09-26, 01:53:04,VALID,999.892,VALID,0,VALID,88.5189,VALID,0,VALID,23.5238,VALID,1,VALID,0.511328,
2010-09-26, 01:54:04,VALID,999.896,VALID,0,VALID,88.4273,VALID,0,VALID,23.5061,VALID,1,VALID,0.514844,
2010-09-26, 01:55:04,VALID,999.89,VALID,0,VALID,88.6028,VALID,0,VALID,23.4866,VALID,1,VALID,0.208203,
2010-09-26, 01:56:04,VALID,999.889,VALID,0,VALID,88.5799,VALID,0,VALID,23.4671,VALID,1,VALID,0.0832031,
2010-09-26, 01:57:04,VALID,999.89,VALID,0,VALID,88.5951,VALID,0,VALID,23.4085,VALID,1,VALID,0,
2010-09-26, 01:58:04,VALID,999.872,VALID,0,VALID,88.6943,VALID,0,VALID,23.389,VALID,1,VALID,0,
2010-09-26, 01:59:04,VALID,999.892,VALID,0,VALID,88.8393,VALID,0,VALID,23.35,VALID,1,VALID,0,
2010-09-26, 02:00:04,VALID,999.903,VALID,0,VALID,89.1597,VALID,0,VALID,23.3305,VALID,1,VALID,0.0730469,
2010-09-26, 02:01:04,VALID,999.915,VALID,0,VALID,89.381,VALID,0,VALID,23.3305,VALID,1,VALID,0.380078,
2010-09-26, 02:02:04,VALID,999.871,VALID,0,VALID,89.3505,VALID,0,VALID,23.3305,VALID,1,VALID,0.370313,
2010-09-26, 02:03:04,VALID,999.855,VALID,0,VALID,89.2742,VALID,0,VALID,23.3305,VALID,1,VALID,0.298828,
2010-09-26, 02:04:04,VALID,999.805,VALID,0,VALID,89.1674,VALID,0,VALID,23.35,VALID,18,VALID,0.237891,
2010-09-26, 02:05:04,VALID,999.785,VALID,0,VALID,89.0682,VALID,0,VALID,23.35,VALID,18,VALID,0.471484,
2010-09-26, 02:06:04,VALID,999.748,VALID,0,VALID,88.9309,VALID,0,VALID,23.3695,VALID,18,VALID,0.336328,
2010-09-26, 02:07:04,VALID,999.696,VALID,0,VALID,88.9461,VALID,0.112286,VALID,23.3287,VALID,18,VALID,0.437891,
2010-09-26, 02:08:04,VALID,999.652,VALID,0,VALID,89.1368,VALID,0.112286,VALID,23.3092,VALID,18,VALID,0.511719,
2010-09-26, 02:09:04,VALID,999.667,VALID,0,VALID,89.2284,VALID,0.112286,VALID,23.3482,VALID,18,VALID,0.555469,
2010-09-26, 02:10:04,VALID,999.64,VALID,0,VALID,89.2589,VALID,0,VALID,23.3677,VALID,18,VALID,0.411328,
2010-09-26, 02:11:04,VALID,999.622,VALID,0,VALID,89.2132,VALID,0,VALID,23.3677,VALID,18,VALID,0.280859,
2010-09-26, 02:12:04,VALID,999.635,VALID,0,VALID,89.0911,VALID,0,VALID,23.3464,VALID,18,VALID,0.0492188,
2010-09-26, 02:13:04,VALID,999.647,VALID,0,VALID,88.9919,VALID,0,VALID,23.35,VALID,18,VALID,0,
2010-09-26, 02:14:04,VALID,999.602,VALID,0,VALID,88.9995,VALID,0,VALID,23.311,VALID,18,VALID,0,
2010-09-26, 02:15:04,VALID,999.58,VALID,0,VALID,88.9614,VALID,0,VALID,23.2915,VALID,18,VALID,0,
2010-09-26, 02:16:04,VALID,999.574,VALID,0,VALID,89.114,VALID,0,VALID,23.2719,VALID,18,VALID,0,
2010-09-26, 02:17:04,VALID,999.558,VALID,0,VALID,89.4115,VALID,0,VALID,23.2524,VALID,18,VALID,0.364062,
2010-09-26, 02:18:04,VALID,999.537,VALID,0,VALID,89.5794,VALID,0,VALID,23.2524,VALID,18,VALID,0.454297,
2010-09-26, 02:19:04,VALID,999.516,VALID,0,VALID,89.5641,VALID,0,VALID,23.2915,VALID,18,VALID,0.614453,
2010-09-26, 02:20:04,VALID,999.508,VALID,0,VALID,89.4497,VALID,0,VALID,23.311,VALID,31,VALID,0.765625,
2010-09-26, 02:21:04,VALID,999.524,VALID,0,VALID,89.2055,VALID,0,VALID,23.389,VALID,31,VALID,0.776172,
2010-09-26, 02:22:04,VALID,999.529,VALID,0,VALID,88.5112,VALID,0,VALID,23.4475,VALID,58,VALID,1.23789,
2010-09-26, 02:23:04,VALID,999.516,VALID,0,VALID,87.8246,VALID,0,VALID,23.5061,VALID,68,VALID,1.42031,
2010-09-26, 02:24:04,VALID,999.532,VALID,0,VALID,87.6338,VALID,0,VALID,23.5061,VALID,74,VALID,1.46836,
2010-09-26, 02:25:04,VALID,999.531,VALID,0,VALID,87.7025,VALID,0,VALID,23.4866,VALID,78,VALID,1.29453,
2010-09-26, 02:26:04,VALID,999.512,VALID,0,VALID,87.7788,VALID,0,VALID,23.4263,VALID,84,VALID,1.20313,
2010-09-26, 02:27:04,VALID,999.474,VALID,0,VALID,88.0458,VALID,0,VALID,23.428,VALID,92,VALID,1.22187,
2010-09-26, 02:28:04,VALID,999.457,VALID,0,VALID,88.2976,VALID,0,VALID,23.389,VALID,97,VALID,1.1793,
2010-09-26, 02:29:04,VALID,999.424,VALID,0,VALID,88.4426,VALID,0,VALID,23.3695,VALID,109,VALID,1.17617,
2010-09-26, 02:30:04,VALID,999.429,VALID,0,VALID,88.4044,VALID,0,VALID,23.35,VALID,113,VALID,1.27266,
2010-09-26, 02:31:04,VALID,999.428,VALID,0,VALID,88.5646,VALID,0,VALID,23.35,VALID,114,VALID,1.31211,
2010-09-26, 02:32:04,VALID,999.394,VALID,0,VALID,88.7096,VALID,0,VALID,23.3695,VALID,113,VALID,1.32148,
2010-09-26, 02:33:04,VALID,999.371,VALID,0,VALID,88.763,VALID,0,VALID,23.3695,VALID,114,VALID,1.08984,
2010-09-26, 02:34:04,VALID,999.38,VALID,0,VALID,88.763,VALID,0,VALID,23.3695,VALID,114,VALID,0.937891,
2010-09-26, 02:35:04,VALID,999.349,VALID,0,VALID,88.8698,VALID,0,VALID,23.3695,VALID,114,VALID,0.940625,
2010-09-26, 02:36:04,VALID,999.366,VALID,0,VALID,88.7935,VALID,0,VALID,23.35,VALID,114,VALID,0.691797,
2010-09-26, 02:37:04,VALID,999.336,VALID,0,VALID,88.6486,VALID,0.112286,VALID,23.3482,VALID,114,VALID,0.468359,
2010-09-26, 02:38:04,VALID,999.377,VALID,0,VALID,88.702,VALID,0,VALID,23.3092,VALID,114,VALID,0.451172,
2010-09-26, 02:39:04,VALID,999.387,VALID,0,VALID,88.9385,VALID,0.112286,VALID,23.2897,VALID,114,VALID,0.554688,
2010-09-26, 02:40:04,VALID,999.39,VALID,0,VALID,89.0911,VALID,0,VALID,23.2702,VALID,114,VALID,0.576563,
2010-09-26, 02:41:04,VALID,999.396,VALID,0,VALID,89.381,VALID,0,VALID,23.2897,VALID,114,VALID,0.598828,
2010-09-26, 02:42:04,VALID,999.435,VALID,0,VALID,89.5794,VALID,0.112286,VALID,23.3287,VALID,114,VALID,0.636328,
2010-09-26, 02:43:04,VALID,999.463,VALID,0,VALID,89.4344,VALID,0,VALID,23.3872,VALID,104,VALID,0.721875,
2010-09-26, 02:44:04,VALID,999.469,VALID,0,VALID,89.0606,VALID,0.112286,VALID,23.4653,VALID,104,VALID,0.741797,
2010-09-26, 02:45:04,VALID,999.432,VALID,0,VALID,88.6638,VALID,0.112286,VALID,23.5238,VALID,104,VALID,0.654297,
2010-09-26, 02:46:04,VALID,999.423,VALID,0,VALID,88.4426,VALID,0.112286,VALID,23.5628,VALID,104,VALID,0.547656,
2010-09-26, 02:47:04,VALID,999.384,VALID,0,VALID,88.2747,VALID,0.112286,VALID,23.5823,VALID,104,VALID,0.428516,
2010-09-26, 02:48:04,VALID,999.384,VALID,0,VALID,88.1679,VALID,0.112286,VALID,23.6019,VALID,104,VALID,0.4,
2010-09-26, 02:49:04,VALID,999.414,VALID,0,VALID,88.0992,VALID,0.112286,VALID,23.6019,VALID,104,VALID,0.353906,
2010-09-26, 02:50:04,VALID,999.372,VALID,0,VALID,87.9543,VALID,0.112286,VALID,23.6001,VALID,104,VALID,0.51875,
2010-09-26, 02:51:04,VALID,999.347,VALID,0,VALID,88.0763,VALID,0.112286,VALID,23.6409,VALID,104,VALID,0.523047,
2010-09-26, 02:52:04,VALID,999.345,VALID,0,VALID,88.0153,VALID,0,VALID,23.6214,VALID,104,VALID,0.516016,
2010-09-26, 02:53:04,VALID,999.307,VALID,0,VALID,87.939,VALID,0,VALID,23.6622,VALID,104,VALID,0.517578,
2010-09-26, 02:54:04,VALID,999.292,VALID,0,VALID,87.8551,VALID,0,VALID,23.7012,VALID,104,VALID,0.499609,
2010-09-26, 02:55:04,VALID,999.265,VALID,0,VALID,87.7864,VALID,0,VALID,23.7012,VALID,104,VALID,0.354688,
2010-09-26, 02:56:04,VALID,999.25,VALID,0,VALID,87.7635,VALID,0,VALID,23.7207,VALID,104,VALID,0.480469,
2010-09-26, 02:57:04,VALID,999.233,VALID,0,VALID,87.527,VALID,0,VALID,23.7207,VALID,104,VALID,0.785937,
2010-09-26, 02:58:04,VALID,999.229,VALID,0,VALID,87.2066,VALID,0,VALID,23.7012,VALID,97,VALID,0.540234,
2010-09-26, 02:59:04,VALID,999.235,VALID,0,VALID,87.2294,VALID,0,VALID,23.6817,VALID,97,VALID,0.433984,
2010-09-26, 03:00:04,VALID,999.245,VALID,0,VALID,87.3363,VALID,0,VALID,23.6232,VALID,97,VALID,0.19375,
2010-09-26, 03:01:04,VALID,999.227,VALID,0,VALID,87.4507,VALID,0,VALID,23.5646,VALID,97,VALID,0.274609,
2010-09-26, 03:02:04,VALID,999.239,VALID,0,VALID,88.1603,VALID,0,VALID,23.5043,VALID,97,VALID,0.367969,
2010-09-26, 03:03:04,VALID,999.244,VALID,0,VALID,88.0458,VALID,0,VALID,23.4671,VALID,97,VALID,0.319141,
2010-09-26, 03:04:04,VALID,999.274,VALID,0,VALID,88.4197,VALID,0,VALID,23.4085,VALID,97,VALID,0.376172,
2010-09-26, 03:05:04,VALID,999.262,VALID,0,VALID,88.8011,VALID,0,VALID,23.389,VALID,97,VALID,0.192578,
2010-09-26, 03:06:04,VALID,999.29,VALID,0,VALID,89.0606,VALID,0,VALID,23.3695,VALID,97,VALID,0.35625,
2010-09-26, 03:07:04,VALID,999.293,VALID,0,VALID,89.2208,VALID,0,VALID,23.389,VALID,101,VALID,0.493359,
2010-09-26, 03:08:04,VALID,999.314,VALID,0,VALID,89.1368,VALID,0,VALID,23.4263,VALID,167,VALID,0.773047,
2010-09-26, 03:09:04,VALID,999.334,VALID,0,VALID,88.8088,VALID,0,VALID,23.4653,VALID,159,VALID,0.664844,
2010-09-26, 03:10:04,VALID,999.328,VALID,0,VALID,88.29,VALID,0,VALID,23.5043,VALID,156,VALID,0.960156,
2010-09-26, 03:11:04,VALID,999.325,VALID,0,VALID,87.9466,VALID,0,VALID,23.5433,VALID,156,VALID,0.807813,
2010-09-26, 03:12:04,VALID,999.332,VALID,0,VALID,87.6796,VALID,0,VALID,23.5628,VALID,164,VALID,0.647656,
2010-09-26, 03:13:04,VALID,999.335,VALID,0,VALID,87.6262,VALID,0,VALID,23.5823,VALID,163,VALID,0.807813,
2010-09-26, 03:14:04,VALID,999.312,VALID,0,VALID,87.6262,VALID,0,VALID,23.6019,VALID,163,VALID,0.536719,
2010-09-26, 03:15:04,VALID,999.355,VALID,0,VALID,87.5499,VALID,0,VALID,23.6409,VALID,163,VALID,0.446484,
2010-09-26, 03:16:04,VALID,999.362,VALID,0,VALID,87.26,VALID,0,VALID,23.6799,VALID,170,VALID,0.71875,
2010-09-26, 03:17:04,VALID,999.353,VALID,0,VALID,87.0082,VALID,0.112286,VALID,23.7189,VALID,164,VALID,1.03789,
2010-09-26, 03:18:04,VALID,999.356,VALID,0,VALID,86.8556,VALID,0.112286,VALID,23.7579,VALID,194,VALID,0.661719,
2010-09-26, 03:19:04,VALID,999.352,VALID,0,VALID,86.5275,VALID,0,VALID,23.8183,VALID,194,VALID,0.425781,
2010-09-26, 03:20:04,VALID,999.357,VALID,0,VALID,86.4512,VALID,0.112286,VALID,23.7189,VALID,194,VALID,0.403906,
2010-09-26, 03:21:04,VALID,999.417,VALID,0,VALID,86.9853,VALID,0,VALID,23.6214,VALID,194,VALID,0.617188,
2010-09-26, 03:22:04,VALID,999.409,VALID,0,VALID,87.4889,VALID,0,VALID,23.5061,VALID,194,VALID,1.12734,
2010-09-26, 03:23:04,VALID,999.463,VALID,0,VALID,87.8627,VALID,0,VALID,23.4085,VALID,24,VALID,0.929688,
2010-09-26, 03:24:04,VALID,999.503,VALID,0,VALID,88.0687,VALID,0,VALID,23.3305,VALID,24,VALID,1.0293,
2010-09-26, 03:25:04,VALID,999.51,VALID,0,VALID,88.4197,VALID,0,VALID,23.2524,VALID,24,VALID,0.771875,
2010-09-26, 03:26:04,VALID,999.524,VALID,0,VALID,88.7706,VALID,0,VALID,23.1939,VALID,38,VALID,1.17227,
2010-09-26, 03:27:04,VALID,999.504,VALID,0,VALID,88.969,VALID,0,VALID,23.2152,VALID,44,VALID,0.999219,
2010-09-26, 03:28:04,VALID,999.512,VALID,0,VALID,89.0682,VALID,0,VALID,23.1939,VALID,45,VALID,0.810156,
2010-09-26, 03:29:04,VALID,999.485,VALID,0,VALID,89.0606,VALID,0,VALID,23.2134,VALID,45,VALID,0.577344,
2010-09-26, 03:30:04,VALID,999.451,VALID,0,VALID,89.1368,VALID,0,VALID,23.2329,VALID,45,VALID,0.598828,
2010-09-26, 03:31:04,VALID,999.473,VALID,0,VALID,89.0453,VALID,0,VALID,23.2542,VALID,45,VALID,0.564844,
2010-09-26, 03:32:04,VALID,999.465,VALID,0,VALID,88.9232,VALID,0,VALID,23.2719,VALID,45,VALID,0.767578,
2010-09-26, 03:33:04,VALID,999.433,VALID,0,VALID,88.7401,VALID,0,VALID,23.2719,VALID,45,VALID,0.888672,
2010-09-26, 03:34:04,VALID,999.438,VALID,0,VALID,88.7325,VALID,0,VALID,23.2524,VALID,45,VALID,0.849219,
2010-09-26, 03:35:04,VALID,999.438,VALID,0,VALID,88.8927,VALID,0,VALID,23.2542,VALID,45,VALID,0.890625,
2010-09-26, 03:36:04,VALID,999.419,VALID,0,VALID,89.1445,VALID,0,VALID,23.2134,VALID,45,VALID,0.926953,
2010-09-26, 03:37:04,VALID,999.414,VALID,0,VALID,89.1521,VALID,0,VALID,23.2329,VALID,45,VALID,0.751953,
2010-09-26, 03:38:04,VALID,999.43,VALID,0,VALID,89.2284,VALID,0,VALID,23.1921,VALID,44,VALID,0.63125,
2010-09-26, 03:39:04,VALID,999.438,VALID,0,VALID,89.4344,VALID,0.112286,VALID,23.1726,VALID,44,VALID,0.565625,
2010-09-26, 03:40:04,VALID,999.442,VALID,0,VALID,89.6251,VALID,0.112286,VALID,23.1531,VALID,44,VALID,0.296094,
2010-09-26, 03:41:04,VALID,999.44,VALID,0,VALID,89.6786,VALID,0,VALID,23.1549,VALID,44,VALID,0.136328,
2010-09-26, 03:42:04,VALID,999.456,VALID,0,VALID,89.7777,VALID,0,VALID,23.1141,VALID,44,VALID,0.015625,
2010-09-26, 03:43:04,VALID,999.464,VALID,0,VALID,89.8311,VALID,0.112286,VALID,23.0751,VALID,44,VALID,0.280859,
2010-09-26, 03:44:04,VALID,999.469,VALID,0,VALID,90.0982,VALID,0.112286,VALID,23.0751,VALID,44,VALID,0.488281,